This demonstration page uses our WeatherBlox Daily Observations layout. Learn more.

Left ArrowRight Arrow

Hourly Observations for July 7, 2021

Temp ( °F °C ) Dew Point ( °F °C ) Humidity (%) Winds ( mph kmh ) Pressure ( in mb ) Visibility ( mi km ) Precip ( " mm )
12:53 am 00:53 Clear 64 17.8 59 15 84 84 ENE 12 19 29.96 1014 10 16 0.00 0.00
1:53 am 01:53 Clear 63 17.2 59 15 87 87 E 12 19 29.95 1014 10 16 0.00 0.00
2:53 am 02:53 Clear 61 16.1 59 15 93 93 E 12 19 29.94 1014 10 16 0.00 0.00
3:53 am 03:53 Clear 60 15.6 59 15 96 96 E 6 9 29.93 1014 10 16 0.00 0.00
4:53 am 04:53 Clear 57 13.9 57 13.9 100 100 Calm 29.94 1014 9 14 0.00 0.00
5:53 am 05:53 Sunny 58 14.4 57 13.9 97 97 ENE 6 9 29.94 1014 9 14 0.00 0.00
6:45 am 06:45 Mostly Sunny 59 15 58 14.4 96 96 ENE 9 15 29.93 1014 9 14 0.00 0.00
6:53 am 06:53 Mostly Sunny 60 15.6 58 14.4 93 93 ENE 9 15 29.93 1014 10 16 0.00 0.00
7:36 am 07:36 Mostly Cloudy 60 15.6 58 14.4 93 93 NE 10 17 29.93 1014 10 16 0.00 0.00
7:53 am 07:53 Cloudy 61 16.1 59 15 93 93 ENE 10 17 29.94 1014 10 16 0.00 0.00
8:23 am 08:23 Partly Cloudy 63 17.2 59 15 87 87 ENE 12 19 29.91 1013 10 16 0.00 0.00
8:53 am 08:53 Sunny 65 18.3 59 15 81 81 ENE 12 19 29.93 1013 10 16 0.00 0.00
9:53 am 09:53 Sunny 72 22.2 60 15.6 66 66 E 13 20 29.91 1013 10 16 0.00 0.00
10:53 am 10:53 Sunny 78 25.6 61 16.1 56 56 ENE 13 20 29.88 1012 10 16 0.00 0.00
11:53 am 11:53 Sunny 82 27.8 61 16.1 49 49 E 22 35 29.85 1011 10 16 0.00 0.00
12:53 pm 12:53 Sunny 83 28.3 60 15.6 46 46 E 18 30 29.84 1010 10 16 0.00 0.00
1:53 pm 13:53 Sunny 84 28.9 60 15.6 44 44 E 14 22 29.81 1010 10 16 0.00 0.00
2:53 pm 14:53 Sunny 85 29.4 60 15.6 43 43 ENE 15 24 29.78 1009 10 16 0.00 0.00
3:53 pm 15:53 Sunny 88 31.1 59 15 38 38 SW 5 7 29.78 1009 10 16 0.00 0.00
4:53 pm 16:53 Mostly Cloudy 86 30 57 13.9 37 37 WNW 16 26 29.81 1010 10 16 0.00 0.00
5:07 pm 17:07 Mostly Cloudy with Nearby Thunderstorms 84 28.9 57 13.9 40 40 W 13 20 29.67 1005 10 16 0.00 0.00
5:23 pm 17:23 Mostly Sunny 84 28.9 60 15.6 44 44 ENE 3 6 29.62 1003 10 16 0.00 0.00
5:53 pm 17:53 Sunny 84 28.9 61 16.1 46 46 SSW 6 9 29.76 1008 10 16 0.00 0.00
6:53 pm 18:53 Sunny 83 28.3 57 13.9 41 41 SSW 9 15 29.73 1007 10 16 0.00 0.00
7:53 pm 19:53 Sunny 83 28.3 58 14.4 43 43 S 6 9 29.72 1006 10 16 0.00 0.00
8:53 pm 20:53 Sunny 78 25.6 60 15.6 54 54 SSW 3 6 29.72 1006 10 16 0.00 0.00
9:53 pm 21:53 Clear 75 23.9 56 13.3 52 52 W 5 7 29.71 1006 10 16 0.00 0.00
10:53 pm 22:53 Clear 66 18.9 56 13.3 70 70 Calm 29.71 1006 10 16 0.00 0.00
11:53 pm 23:53 Clear 68 20 55 12.8 63 63 Calm 29.69 1006 10 16 0.00 0.00

Powered by AerisWeather